Powrót do katalogu

ADRAS-J

AktywnyNaukaPO
NORAD 58992·PAYLOAD·🇯🇵 Japan

Wystrzelony Feb 18, 2024 z Rocket Lab Launch Complex 1

Loading…

Następne Przeloty (najbliższe 24 godziny)

TLE

ŚwieżeSource: Space-Track

Epoka: Sep 14, 2026, 13:47 UTC

1 58992U 24034A   26257.57459492  .00156742  93445-5  11476-2 0  9999
2 58992  98.2062 301.9423 0109912 149.4290 211.3436 15.65280485141487

Śledź ADRAS-J w czasie rzeczywistym z AllMySat

Download on the App Store